{"data":{"norad_id":66150,"intl_designator":"2025-240E","name":"STARLINK-35605","alt_names":[],"object_type":"PAYLOAD","status":"ACTIVE","operator":null,"country":"US","launch_date":"2025-10-25","launch_site_code":"AFWTR","launch_vehicle":null,"mission":null,"orbit_class":"UNKNOWN","rcs_meters":null,"size_class":null,"mass_kg":null,"dimensions":null,"purposes":["comms"],"wikipedia_slug":null,"has_3d_model":false,"image_url":null,"decayed_at":null,"tle_current":{"epoch":"2026-05-25T04:57:14.936832Z","epoch_age_seconds":54044,"freshness":"FRESH","line1":"1 66150U 25240E   26145.20642288 -.00045880  00000+0 -15490-2 0  9998","line2":"2 66150  53.1564  67.3892 0005379 101.9803 258.1801 15.30129326 33705","mean_motion":15.30129326,"eccentricity":0.0005379,"inclination_deg":53.1564,"raan_deg":67.3892,"arg_perigee_deg":101.9803,"mean_anomaly_deg":258.1801,"bstar":-0.001549,"rev_number":3370,"period_min":94.109692267933,"perigee_km":471.73956577633,"apogee_km":479.11262895648,"semimajor_km":6853.5630973664,"source":"CELESTRAK","updated_at":"2026-05-25T13:38:21.069308Z"}}}